Weather in Rudenkivka

Ukraine / Poltava Region     49°19′22″N   34°24′22″E
temp.,
°C
wind,
m/s
gust,
m/s
humid.,
%
clouds,
%
prec.,
mm/h
press.,
hPa
HPBL,
m
6 may, thu
thu600:00+12s61364100 0.0 1013486
03:00+9s41170100 0.0 1013282
06:00+8sse51168100 0.0 1012281
09:00+13s7115293 0.0 1011659
12:00+17ssw794698 0.0 10111333
15:00+15sw3858100 0.0 1011349
18:00+15ssw3663100 0.0 1010313
21:00+10nnw4890100 0.9 1013485
7 may, fri
fri700:00+9nw239229 0.9 1014251
03:00+6wnw33945 0.9 101550
06:00+6wnw11930 0.0 101610
09:00+12sw22695 0.0 1017527
12:00+16ssw3342100 0.0 10161627
15:00+17s4540100 0.0 10151720
18:00+17s475085 0.0 1013792
21:00+13sse41260100 0.0 1013285
8 may, sat
sat800:00+14s71552100 0.0 1011498
03:00+13s71577100 0.0 1009728
06:00+13s81682100 0.3 1008845
09:00+13ssw71288100 1.1 1008823
12:00+11wnw5992100 5.8 1011613
15:00+13wnw6869100 6.1 10131407
18:00+12nw7960100 0.0 10141157
21:00+9nw4870100 0.0 1016356
9 may, sun
sun900:00+7nw3875100 0.0 1018253
03:00+5nnw4117957 0.0 1019305
06:00+4nnw4118211 0.0 1021302
09:00+10nnw6960100 0.0 1022971
12:00+13nnw810475 0.0 10222101
15:00+14nnw894295 0.0 10232617
18:00+13nnw78505 0.0 10241803
21:00+8nnw48660 0.0 1027123
10 may, mon
mon1000:00+6nnw37715 0.0 102897
03:00+5n37725 0.0 1029104
06:00+5nne37745 0.0 1030134
09:00+12nne46511 0.0 1031675
12:00+15nne67383 0.0 10301816
15:00+16nne68385 0.0 10281942
18:00+15nne69505 0.0 10281804
21:00+9nne49690 0.0 1028152